Flag for U.S.A. Weather past 2 weeks in Plano, Texas, U.S.A.

Now
45 °F

Low clouds.


Feels Like: 44 °F
Forecast: 42 / 54 °F
Wind: 3 mph from East

Location: McKinney Municipal Airport

Current Time: Dec 18, 2014 at 12:45:01 PM

Latest Report: Dec 18, 2014 at 11:53 AM


Visibility: 7 mi

Pressure: 30.20 "Hg

Humidity: 93%

Dew point: 43 °F

Location of PlanoLocation

Historic Weather in Plano — Graph

°F

Plano temperature yesterday

Maximum temperature yesterday: 43 °F (at 12:53 PM)
Minimum temperature yesterday: 36 °F (at 12:53 AM)
Average temperature yesterday: 40 °F

Past Weeks' High & Low Weather Summary

 TemperatureHumidityPressure
High76 °F (Dec 5, 2:53 PM)100% (Dec 8, 11:04 PM)30.45 "Hg (Dec 8, 11:04 PM)
Low34 °F (Dec 16, 11:53 PM)35% (Dec 15, 3:53 PM)29.79 "Hg (Dec 14, 11:53 PM)
Average53 °F82%30.20 "Hg
* Reported Dec 3 11:02 AM — Dec 18 11:53 AM, Plano, Weather by CustomWeather, © 2014

Note: Actual official high and low records may vary slightly from our data, if they occured in-between our weather recording intervals... More about our weather records

Advertising

Plano weather history for previous 24 hours

 ConditionsComfort  
Time TempWeatherWind HumidityBarometerVisibility
11:53 AM
Dec 18
45 °FLow clouds.3 mph93%30.20 "Hg7 mi
10:53 AM44 °FFog.3 mph96%30.22 "Hg4 mi
9:53 AM43 °FFog.5 mph97%30.21 "Hg2 mi
8:53 AM42 °FFog.3 mph96%30.20 "Hg2 mi
7:53 AM42 °FFog.3 mph96%30.19 "Hg2 mi
6:53 AM41 °FFog.5 mph100%30.18 "Hg3 mi
5:53 AM41 °FFog.5 mph100%30.16 "Hg3 mi
4:53 AM41 °FFog.3 mph100%30.15 "Hg3 mi
3:53 AM41 °FFog.6 mph96%30.16 "Hg3 mi
2:53 AM41 °FFog.5 mph96%30.17 "Hg3 mi
1:53 AM40 °FFog.5 mph97%30.17 "Hg5 mi
12:53 AM39 °FFog.8 mph100%30.19 "Hg5 mi
11:53 PM
Dec 17
39 °FFog.6 mph96%30.21 "Hg6 mi
10:53 PM39 °FLight rain. Fog.7 mph96%30.22 "Hg6 mi
9:53 PM40 °FLow clouds.6 mph93%30.23 "Hg10 mi
8:53 PM40 °FLight rain. Fog.7 mph93%30.22 "Hg4 mi
7:53 PM40 °FLight rain. Low clouds.8 mph97%30.20 "Hg9 mi
6:53 PM40 °FLight rain. Mostly cloudy.7 mph97%30.19 "Hg9 mi
5:53 PM41 °FRain. Fog.7 mph93%30.19 "Hg4 mi
4:53 PM42 °FLight rain. Mostly cloudy.No wind89%30.19 "Hg8 mi
3:53 PM43 °FOvercast.10 mph76%30.13 "Hg10 mi
2:53 PM43 °FOvercast.13 mph74%30.12 "Hg10 mi
1:53 PM43 °FOvercast.12 mph74%30.15 "Hg10 mi
12:53 PM43 °FOvercast.10 mph74%30.22 "Hg10 mi
Weather by CustomWeather, © 2014

See weather overviewHow to use our weather pages